Regional Weather Roundup
Issued by NWS Jackson, KY

Home | Current Version | Previous Version | Graphics & Text | Print | Product List | Glossary On
Versions: 1 2 3 4 5 6 7 8 9 10 11 12 13 14 15 16 17 18 19 20 21 22 23 24 25 26 27 28 29 30 31 32 33 34 35 36 37 38 39 40 41 42 43 44 45 46 47 48 49
000
ASUS43 KJKL 030610
RWRJKL

EAST KENTUCKY HOURLY WEATHER ROUNDUP
NATIONAL WEATHER SERVICE JACKSON KY
200 AM EDT MON AUG 03 2015

NOTE: "FAIR" INDICATES FEW OR NO CLOUDS BELOW 12,000 FEET WITH
NO SIGNIFICANT WEATHER AND/OR OBSTRUCTIONS TO VISIBILITY.

* THESE REPORTS ARE NOT UNDER NWS QUALITY CONTROL AND MAY NOT
  REPORT WEATHER SUCH AS PRECIPITATION AND FOG.

KYZ079-080-083-085-087-088-110-112-115-119-120-030700
...EASTERN KENTUCKY...

CITY           SKY/WX    TMP DP  RH WIND       PRES   REMARKS
JACKSON        CLEAR     70  60  70 CALM      29.94F
6HR MIN TEMP:  69; 6HR MAX TEMP:  79;

LONDON         CLEAR     66  61  84 CALM      29.95S
6HR MIN TEMP:  66; 6HR MAX TEMP:  83;

SOMERSET*      CLEAR     61  61 100 CALM      29.95F
MONTICELLO*    CLEAR     63  63 100 CALM      29.97F
6HR MIN TEMP:  62; 6HR MAX TEMP:  80;

WILLIAMSBURG*  CLEAR     64  64 100 SW3       29.96S
MIDDLESBORO*   CLEAR     62  61  97 CALM      29.98S
6HR MIN TEMP:  62; 6HR MAX TEMP:  79;

HAZARD APT*    CLEAR     63  63 100 CALM      29.95F
BLACK MTN*       N/A     66  55  68 S3          N/A
PIKEVILLE APT* CLEAR     66  63  88 S3        29.95F
BIG SANDY*     CLEAR     66  64  91 CALM      29.93F
6HR MIN TEMP:  66; 6HR MAX TEMP:  78;

MOREHEAD APT*  CLEAR     66  64  94 S5        29.93F
$$

KYZ035-036-041-042-044-050-067-078-099-030700
...CENTRAL KENTUCKY...

CITY           SKY/WX    TMP DP  RH WIND       PRES   REMARKS
MT STERLING*   CLEAR     63  63 100 SW5       29.93S
FLEMING/MASON* CLEAR     68  64  88 S6        29.91F
DANVILLE*      CLEAR     63  61  94 CALM      29.94F
RICHMOND*      CLEAR     68  61  77 CALM      29.93S
LEXINGTON      CLEAR     66  61  84 S7        29.92F
6HR MIN TEMP:  65; 6HR MAX TEMP:  82;

FRANKFORT      CLEAR     67  61  81 SW3       29.89F
6HR MIN TEMP:  66; 6HR MAX TEMP:  82;

$$

KYZ091>093-OHZ055-061-077-WVZ005-015-034-035-042-030700
...SOUTHERN OHIO/WEST VIRGINIA...

CITY           SKY/WX    TMP DP  RH WIND       PRES   REMARKS
COVINGTON      CLEAR     70  61  73 SW6       29.88S
COLUMBUS       PTCLDY    72  61  68 SW6       29.85S
DAYTON         PTCLDY    72  62  71 SW10      29.86F
WILMINGTON     CLEAR     65  59  81 SW6       29.88S
HUNTINGTON     CLEAR     64  62  93 E3        29.90F
CHARLESTON     CLEAR     65  63  93 CALM      29.91F
PINEVILLE*     MOCLDY    61  61 100 MISG      30.03S
BECKLEY        MOCLDY    66  52  60 SE6       30.02S
BLUEFIELD      MOCLDY    70  54  56 S6        30.04F
$$

VAZ002-007-008-TNZ017-027-036-066-071-030700
...SOUTHWEST VIRGINIA/EAST TENNESSEE...

CITY           SKY/WX    TMP DP  RH WIND       PRES   REMARKS
WISE*          CLEAR     66  54  63 S3        30.03F
ABINGDON*      CLOUDY    69  60  71 CALM      30.01S
BRISTOL        MOCLDY    69  61  75 CALM      29.97S
KNOXVILLE      CLEAR     72  65  78 CALM      29.93
OAK RIDGE      CLEAR     67  63  87 CALM      29.95S
CROSSVILLE     CLEAR     63  60  90 CALM      30.00S
NASHVILLE      PTCLDY    68  65  90 S3        29.93S
$$

...KEY TO REMARKS...
VSB - VISIBILITY IN MILES
WCI - WIND CHILL INDEX
HX  - HEAT INDEX

$$



USA.gov is the U.S. government's official web portal to all federal, state and local government web resources and services.